This is the latest recevied weather packets stored in our database for station/object KG0HG. If no packets are shown the sender has not sent any weather packets the latest 10 day(s).
| Time | Temp. | Humidity | Pressure | Rain* | Wind** | Luminosity | Snow |
|---|---|---|---|---|---|---|---|
| 1778110627 | 15.56° C | 32% | 1017.3 hPa | 0 mm | - | 34 W/m² | - |
| 1778110324 | 16.11° C | 32% | 1017.1 hPa | 0 mm | - | 42 W/m² | - |
| 1778110020 | 16.11° C | 32% | 1017 hPa | 0 mm | - | 35 W/m² | - |
| 1778109715 | 16.11° C | 33% | 1017.1 hPa | 0 mm | - | 34 W/m² | - |
| 1778109413 | 15.56° C | 32% | 1017.2 hPa | 0 mm | - | 33 W/m² | - |
| 1778109111 | 16.11° C | 35% | 1017.1 hPa | 0 mm | - | 37 W/m² | - |
| 1778108807 | 16.11° C | 34% | 1017 hPa | 0 mm | - | 36 W/m² | - |
| 1778108504 | 16.11° C | 34% | 1017.3 hPa | 0 mm | - | 107 W/m² | - |
| 1778108201 | 16.11° C | 33% | 1017.1 hPa | 0 mm | - | 36 W/m² | - |
| 1778107898 | 15.56° C | 34% | 1017 hPa | 0 mm | - | 45 W/m² | - |
| 1778107594 | 16.11° C | 36% | 1017.1 hPa | 0 mm | - | 37 W/m² | - |
| 1778107291 | 15.56° C | 34% | 1017.2 hPa | 0 mm | - | 37 W/m² | - |
| 1778106987 | 15.56° C | 33% | 1017.2 hPa | 0 mm | - | 39 W/m² | - |
| 1778106683 | 15.56° C | 34% | 1017.4 hPa | 0 mm | - | 38 W/m² | - |
| 1778106380 | 16.11° C | 35% | 1017.3 hPa | 0 mm | - | 44 W/m² | - |
| 1778106076 | 16.11° C | 34% | 1017.4 hPa | 0 mm | - | 50 W/m² | - |
| 1778105774 | 16.11° C | 33% | 1017.3 hPa | 0 mm | - | 63 W/m² | - |
| 1778105472 | 16.11° C | 32% | 1017.1 hPa | 0 mm | - | 46 W/m² | - |
| 1778105168 | 15.56° C | 33% | 1017.4 hPa | 0 mm | - | 49 W/m² | - |
| 1778104864 | 15.56° C | 34% | 1017.4 hPa | 0 mm | - | 183 W/m² | - |
| 1778104561 | 15° C | 34% | 1017.4 hPa | 0 mm | - | 293 W/m² | - |
| 1778104256 | 15° C | 36% | 1017.3 hPa | 0 mm | - | 56 W/m² | - |
| 1778103953 | 15.56° C | 34% | 1017.6 hPa | 0 mm | - | 79 W/m² | - |
| 1778103651 | 15.56° C | 34% | 1017.5 hPa | 0 mm | - | 81 W/m² | - |
| 1778103349 | 14.44° C | 33% | 1017.4 hPa | 0 mm | - | 519 W/m² | - |
* Rain latest hour (hover to see other rain measurements)
** Current wind speed in m/s (hover to see current wind gust speed)